{"data":{"norad_id":51894,"epoch":"2026-05-25T01:10:35.067072Z","epoch_age_seconds":64741,"freshness":"FRESH","line1":"1 51894U 22022AU  26145.04901698 -.00000806  00000+0 -32538-4 0  9990","line2":"2 51894  53.2131  16.3282 0001188  81.7435 278.3692 15.08834843234833","mean_motion":15.08834843,"eccentricity":0.0001188,"inclination_deg":53.2131,"raan_deg":16.3282,"arg_perigee_deg":81.7435,"mean_anomaly_deg":278.3692,"bstar":-3.2538e-5,"rev_number":23483,"period_min":95.437880870836,"perigee_km":538.93730583207,"apogee_km":540.58099795776,"semimajor_km":6917.8961518949,"source":"CELESTRAK","updated_at":"2026-05-25T13:38:16.989337Z"}}